Location: Newark
(35.6799°N, 139.7636°E)
Time: 04:56:36
(UTC+00:00)

Transit 2A - Pass Details

Date: 08 December 2019
Orbit: 601 x 958 km, 66.7° (Epoch: 25 January)

Event Time Altitude Azimuth Distance (km) Brightness Sun altitude
Rises 21:14:29 0° 193° (SSW) 3,192 9.4 -5.2°
Reaches altitude 10° 21:17:01 10° 188° (S) 2,213 8.6 -4.7°
Maximum altitude 21:21:50 51° 114° (ESE) 852 6.9 -3.8°
Drops below altitude 10° 21:26:17 10° 38° (NE) 2,038 8.4 -3.0°
Sets 21:28:31 0° 33° (NNE) 2,916 9.1 -2.6°
